Time,TemperatureF,DewpointF,PressureIn,WindDirection,WindDirectionDegrees,WindSpeedMPH,WindSpeedGustMPH,Humidity,HourlyPrecipIn,Conditions,Clouds,dailyrainin,SoftwareType,DateUTC
2013-05-16 00:00:00,60.9,46.9,29.84,SE,137,0.0,17.0,60,0.00,,,-99.99,Weather View 32 v60,2013-05-16 07:00:00,
2013-05-16 00:10:00,60.4,46.4,29.84,SE,141,1.0,16.0,60,0.00,,,-99.99,Weather View 32 v60,2013-05-16 07:10:00,
2013-05-16 00:20:00,60.1,46.1,29.85,North,353,8.0,16.0,60,0.00,,,-99.99,Weather View 32 v60,2013-05-16 07:20:00,
2013-05-16 00:25:00,60.3,46.3,29.86,NE,42,8.0,16.0,60,0.00,,,-99.99,Weather View 32 v60,2013-05-16 07:25:00,
2013-05-16 00:30:00,60.7,46.7,29.86,ENE,73,11.0,16.0,60,0.00,,,-99.99,Weather View 32 v60,2013-05-16 07:30:00,
2013-05-16 00:40:00,60.6,46.6,29.85,SSE,155,0.0,16.0,60,0.00,,,-99.99,Weather View 32 v60,2013-05-16 07:40:00,
2013-05-16 00:50:00,60.5,46.5,29.85,NE,41,8.0,16.0,60,0.00,,,-99.99,Weather View 32 v60,2013-05-16 07:50:00,
2013-05-16 01:00:00,60.7,46.3,29.85,NNE,19,0.0,16.0,59,0.00,,,-99.99,Weather View 32 v60,2013-05-16 08:00:00,
2013-05-16 01:10:00,60.7,46.3,29.85,ENE,69,3.0,16.0,59,0.00,,,-99.99,Weather View 32 v60,2013-05-16 08:10:00,
2013-05-16 01:20:00,60.9,46.4,29.84,NNE,17,5.0,16.0,59,0.00,,,-99.99,Weather View 32 v60,2013-05-16 08:20:00,
2013-05-16 01:25:00,61.0,46.5,29.84,NE,34,3.0,15.0,59,0.00,,,-99.99,Weather View 32 v60,2013-05-16 08:25:00,
2013-05-16 01:30:00,61.1,46.6,29.84,North,356,7.0,14.0,59,0.00,,,-99.99,Weather View 32 v60,2013-05-16 08:30:00,
2013-05-16 01:35:00,61.2,46.7,29.84,NE,36,4.0,14.0,59,0.00,,,-99.99,Weather View 32 v60,2013-05-16 08:35:00,
2013-05-16 01:45:00,61.3,46.8,29.84,NNW,337,0.0,14.0,59,0.00,,,-99.99,Weather View 32 v60,2013-05-16 08:45:00,
2013-05-16 01:55:00,61.2,46.7,29.83,NE,43,0.0,12.0,59,0.00,,,-99.99,Weather View 32 v60,2013-05-16 08:55:00,
2013-05-16 02:05:00,61.3,46.8,29.83,NE,54,0.0,12.0,59,0.00,,,-99.99,Weather View 32 v60,2013-05-16 09:05:00,
2013-05-16 02:15:00,61.3,47.3,29.83,ESE,115,0.0,12.0,60,0.00,,,-99.99,Weather View 32 v60,2013-05-16 09:15:00,
2013-05-16 02:20:00,61.3,47.3,29.83,ESE,115,0.0,11.0,60,0.00,,,-99.99,Weather View 32 v60,2013-05-16 09:20:00,
2013-05-16 02:30:00,61.3,47.3,29.83,NE,55,3.0,8.0,60,0.00,,,-99.99,Weather View 32 v60,2013-05-16 09:30:00,
2013-05-16 02:35:00,61.4,47.4,29.83,WNW,303,3.0,8.0,60,0.00,,,-99.99,Weather View 32 v60,2013-05-16 09:35:00,
2013-05-16 02:40:00,61.4,47.4,29.83,SSE,155,3.0,8.0,60,0.00,,,-99.99,Weather View 32 v60,2013-05-16 09:40:00,
2013-05-16 02:45:00,61.4,47.4,29.83,SE,142,4.0,8.0,60,0.00,,,-99.99,Weather View 32 v60,2013-05-16 09:45:00,
2013-05-16 02:55:00,61.1,47.5,29.83,NE,56,4.0,13.0,61,0.00,,,-99.99,Weather View 32 v60,2013-05-16 09:55:00,
2013-05-16 03:05:00,61.0,47.4,29.83,South,177,1.0,14.0,61,0.00,,,-99.99,Weather View 32 v60,2013-05-16 10:05:00,
2013-05-16 03:10:00,61.0,47.4,29.83,NE,56,2.0,14.0,61,0.00,,,-99.99,Weather View 32 v60,2013-05-16 10:10:00,
2013-05-16 03:20:00,60.9,46.9,29.82,NE,42,2.0,14.0,60,0.00,,,-99.99,Weather View 32 v60,2013-05-16 10:20:00,
2013-05-16 03:25:00,61.0,47.0,29.82,SSE,161,2.0,14.0,60,0.00,,,-99.99,Weather View 32 v60,2013-05-16 10:25:00,
2013-05-16 03:32:00,61.1,47.1,29.83,ESE,118,3.0,14.0,60,0.00,,,-99.99,Weather View 32 v60,2013-05-16 10:32:00,
2013-05-16 03:40:00,61.2,47.2,29.82,SE,135,0.0,14.0,60,0.00,,,-99.99,Weather View 32 v60,2013-05-16 10:40:00,
2013-05-16 03:45:00,61.2,47.2,29.82,NNE,20,0.0,14.0,60,0.00,,,-99.99,Weather View 32 v60,2013-05-16 10:45:00,
2013-05-16 03:55:00,61.2,46.7,29.82,ENE,70,2.0,14.0,59,0.00,,,-99.99,Weather View 32 v60,2013-05-16 10:55:00,
2013-05-16 04:00:00,61.3,46.8,29.82,NW,317,2.0,9.0,59,0.00,,,-99.99,Weather View 32 v60,2013-05-16 11:00:00,
2013-05-16 04:10:00,61.4,46.9,29.82,NE,39,2.0,9.0,59,0.00,,,-99.99,Weather View 32 v60,2013-05-16 11:10:00,
2013-05-16 04:15:00,61.4,46.5,29.82,SSE,153,0.0,9.0,58,0.00,,,-99.99,Weather View 32 v60,2013-05-16 11:15:00,
2013-05-16 04:25:00,61.4,46.9,29.82,North,357,3.0,9.0,59,0.00,,,-99.99,Weather View 32 v60,2013-05-16 11:25:00,
2013-05-16 04:30:00,61.4,46.9,29.82,North,9,3.0,9.0,59,0.00,,,-99.99,Weather View 32 v60,2013-05-16 11:30:00,
2013-05-16 04:35:00,61.4,46.5,29.82,ENE,71,0.0,9.0,58,0.00,,,-99.99,Weather View 32 v60,2013-05-16 11:35:00,
2013-05-16 04:40:00,61.4,46.5,29.82,SSW,211,2.0,9.0,58,0.00,,,-99.99,Weather View 32 v60,2013-05-16 11:40:00,
2013-05-16 04:45:00,61.4,46.5,29.82,NE,51,0.0,9.0,58,0.00,,,-99.99,Weather View 32 v60,2013-05-16 11:45:00,
2013-05-16 04:50:00,61.5,46.5,29.82,NE,51,6.0,8.0,58,0.00,,,-99.99,Weather View 32 v60,2013-05-16 11:50:00,
2013-05-16 05:00:00,61.5,46.5,29.82,East,94,3.0,9.0,58,0.00,,,-99.99,Weather View 32 v60,2013-05-16 12:00:00,
2013-05-16 05:10:00,61.5,46.5,29.82,East,93,5.0,12.0,58,0.00,,,-99.99,Weather View 32 v60,2013-05-16 12:10:00,
2013-05-16 05:15:00,61.6,46.2,29.82,NE,53,6.0,13.0,57,0.00,,,-99.99,Weather View 32 v60,2013-05-16 12:15:00,
2013-05-16 05:20:00,61.7,45.8,29.83,ENE,64,7.0,14.0,56,0.00,,,-99.99,Weather View 32 v60,2013-05-16 12:20:00,
2013-05-16 05:30:00,61.8,46.4,29.82,NNW,340,3.0,14.0,57,0.00,,,-99.99,Weather View 32 v60,2013-05-16 12:30:00,
2013-05-16 05:35:00,61.7,46.7,29.83,ENE,57,7.0,14.0,58,0.00,,,-99.99,Weather View 32 v60,2013-05-16 12:35:00,
2013-05-16 05:40:00,61.7,46.3,29.83,East,92,6.0,15.0,57,0.00,,,-99.99,Weather View 32 v60,2013-05-16 12:40:00,
2013-05-16 05:50:00,61.6,46.6,29.83,East,94,8.0,16.0,58,0.00,,,-99.99,Weather View 32 v60,2013-05-16 12:50:00,
2013-05-16 05:55:00,61.5,47.0,29.83,East,93,7.0,17.0,59,0.00,,,-99.99,Weather View 32 v60,2013-05-16 12:55:00,
2013-05-16 06:00:00,61.3,47.3,29.84,North,353,7.0,17.0,60,0.00,,,-99.99,Weather View 32 v60,2013-05-16 13:00:00,
2013-05-16 06:10:00,61.2,47.2,29.83,North,0,4.0,17.0,60,0.00,,,-99.99,Weather View 32 v60,2013-05-16 13:10:00,
2013-05-16 06:20:00,61.5,47.0,29.84,NNE,21,6.0,17.0,59,0.00,,,-99.99,Weather View 32 v60,2013-05-16 13:20:00,
2013-05-16 06:25:00,61.6,47.5,29.84,ENE,60,13.0,17.0,60,0.00,,,-99.99,Weather View 32 v60,2013-05-16 13:25:00,
2013-05-16 06:30:00,61.6,48.0,29.84,East,79,3.0,17.0,61,0.00,,,-99.99,Weather View 32 v60,2013-05-16 13:30:00,
2013-05-16 06:40:00,61.3,48.1,29.84,NE,39,7.0,17.0,62,0.00,,,-99.99,Weather View 32 v60,2013-05-16 13:40:00,
2013-05-16 06:45:00,61.1,48.4,29.85,ESE,122,4.0,17.0,63,0.00,,,-99.99,Weather View 32 v60,2013-05-16 13:45:00,
2013-05-16 06:50:00,60.8,48.5,29.85,SSE,159,3.0,17.0,64,0.00,,,-99.99,Weather View 32 v60,2013-05-16 13:50:00,
2013-05-16 07:00:00,60.4,48.1,29.86,East,88,5.0,17.0,64,0.00,,,-99.99,Weather View 32 v60,2013-05-16 14:00:00,
2013-05-16 07:10:00,59.7,47.9,29.86,ESE,110,8.0,17.0,65,0.00,,,-99.99,Weather View 32 v60,2013-05-16 14:10:00,
2013-05-16 07:15:00,59.6,48.2,29.86,North,358,11.0,17.0,66,0.00,,,-99.99,Weather View 32 v60,2013-05-16 14:15:00,
2013-05-16 07:20:00,59.7,48.3,29.86,NNE,19,9.0,17.0,66,0.00,,,-99.99,Weather View 32 v60,2013-05-16 14:20:00,
2013-05-16 07:25:00,59.8,48.4,29.86,ENE,60,11.0,17.0,66,0.00,,,-99.99,Weather View 32 v60,2013-05-16 14:25:00,
2013-05-16 07:30:00,60.0,48.2,29.86,NE,55,9.0,17.0,65,0.00,,,-99.99,Weather View 32 v60,2013-05-16 14:30:00,
2013-05-16 07:40:00,60.3,48.0,29.85,North,8,11.0,23.0,64,0.00,,,-99.99,Weather View 32 v60,2013-05-16 14:40:00,
2013-05-16 07:45:00,60.5,48.2,29.86,NNE,24,5.0,23.0,64,0.00,,,-99.99,Weather View 32 v60,2013-05-16 14:45:00,
2013-05-16 07:50:00,60.6,48.7,29.85,East,81,3.0,23.0,65,0.00,,,-99.99,Weather View 32 v60,2013-05-16 14:50:00,
2013-05-16 08:00:00,60.7,49.2,29.86,NE,40,4.0,23.0,66,0.00,,,-99.99,Weather View 32 v60,2013-05-16 15:00:00,
2013-05-16 08:05:00,60.7,49.2,29.86,ESE,110,4.0,23.0,66,0.00,,,-99.99,Weather View 32 v60,2013-05-16 15:05:00,
2013-05-16 08:10:00,60.8,49.3,29.86,South,177,1.0,23.0,66,0.00,,,-99.99,Weather View 32 v60,2013-05-16 15:10:00,
2013-05-16 08:20:00,60.8,49.7,29.86,NE,43,4.0,23.0,67,0.00,,,-99.99,Weather View 32 v60,2013-05-16 15:20:00,
2013-05-16 08:25:00,60.8,49.7,29.86,NE,44,5.0,23.0,67,0.00,,,-99.99,Weather View 32 v60,2013-05-16 15:25:00,
2013-05-16 08:30:00,60.7,50.0,29.87,NNE,18,8.0,23.0,68,0.00,,,-99.99,Weather View 32 v60,2013-05-16 15:30:00,
2013-05-16 08:35:00,60.3,50.5,29.87,NNE,32,7.0,23.0,70,0.00,,,-99.99,Weather View 32 v60,2013-05-16 15:35:00,
2013-05-16 08:40:00,59.7,50.3,29.88,NNE,14,13.0,23.0,71,0.00,,,-99.99,Weather View 32 v60,2013-05-16 15:40:00,
2013-05-16 08:50:00,59.4,50.0,29.88,ENE,59,4.0,23.0,71,0.00,,,-99.99,Weather View 32 v60,2013-05-16 15:50:00,
2013-05-16 08:55:00,59.5,50.1,29.88,North,354,9.0,23.0,71,0.00,,,-99.99,Weather View 32 v60,2013-05-16 15:55:00,
2013-05-16 09:00:00,59.6,50.2,29.88,NNE,17,4.0,23.0,71,0.00,,,-99.99,Weather View 32 v60,2013-05-16 16:00:00,
2013-05-16 09:05:00,59.7,50.3,29.88,WSW,250,5.0,23.0,71,0.00,,,-99.99,Weather View 32 v60,2013-05-16 16:05:00,
2013-05-16 09:10:00,59.9,50.8,29.88,ENE,59,3.0,23.0,72,0.00,,,-99.99,Weather View 32 v60,2013-05-16 16:10:00,
2013-05-16 09:20:00,59.8,50.7,29.88,NE,49,9.0,23.0,72,0.00,,,-99.99,Weather View 32 v60,2013-05-16 16:20:00,
2013-05-16 09:25:00,59.8,50.7,29.88,North,4,5.0,23.0,72,0.00,,,-99.99,Weather View 32 v60,2013-05-16 16:25:00,
2013-05-16 09:30:00,59.9,50.8,29.88,ESE,110,6.0,23.0,72,0.00,,,-99.99,Weather View 32 v60,2013-05-16 16:30:00,
2013-05-16 09:35:00,60.2,50.7,29.88,SSE,159,3.0,23.0,71,0.00,,,-99.99,Weather View 32 v60,2013-05-16 16:35:00,
2013-05-16 09:45:00,60.8,50.9,29.88,ENE,63,3.0,14.0,70,0.00,,,-99.99,Weather View 32 v60,2013-05-16 16:45:00,
2013-05-16 09:50:00,61.2,51.3,29.88,East,80,0.0,14.0,70,0.00,,,-99.99,Weather View 32 v60,2013-05-16 16:50:00,
2013-05-16 10:00:00,61.5,51.6,29.87,SE,140,5.0,14.0,70,0.00,,,-99.99,Weather View 32 v60,2013-05-16 17:00:00,
2013-05-16 10:05:00,61.5,51.6,29.87,NNE,20,4.0,14.0,70,0.00,,,-99.99,Weather View 32 v60,2013-05-16 17:05:00,
2013-05-16 10:10:00,61.6,51.7,29.87,NNE,22,4.0,13.0,70,0.00,,,-99.99,Weather View 32 v60,2013-05-16 17:10:00,
2013-05-16 10:15:00,61.8,51.5,29.87,ENE,64,2.0,13.0,69,0.00,,,-99.99,Weather View 32 v60,2013-05-16 17:15:00,
2013-05-16 10:20:00,61.9,52.0,29.87,ESE,117,4.0,13.0,70,0.00,,,-99.99,Weather View 32 v60,2013-05-16 17:20:00,
2013-05-16 10:30:00,62.5,51.8,29.87,NNE,26,6.0,12.0,68,0.00,,,-99.99,Weather View 32 v60,2013-05-16 17:30:00,
2013-05-16 10:35:00,62.8,52.1,29.87,NNE,20,7.0,13.0,68,0.00,,,-99.99,Weather View 32 v60,2013-05-16 17:35:00,
2013-05-16 10:40:00,63.0,51.8,29.87,ENE,78,4.0,13.0,67,0.00,,,-99.99,Weather View 32 v60,2013-05-16 17:40:00,
2013-05-16 10:50:00,63.5,51.9,29.87,ENE,71,8.0,13.0,66,0.00,,,-99.99,Weather View 32 v60,2013-05-16 17:50:00,
2013-05-16 10:55:00,63.7,52.1,29.87,NNE,12,4.0,15.0,66,0.00,,,-99.99,Weather View 32 v60,2013-05-16 17:55:00,
2013-05-16 11:00:00,64.0,52.8,29.87,North,0,3.0,15.0,67,0.00,,,-99.99,Weather View 32 v60,2013-05-16 18:00:00,
2013-05-16 11:10:00,64.0,52.8,29.87,North,11,8.0,15.0,67,0.00,,,-99.99,Weather View 32 v60,2013-05-16 18:10:00,
2013-05-16 11:20:00,63.7,52.9,29.87,North,354,4.0,15.0,68,0.00,,,-99.99,Weather View 32 v60,2013-05-16 18:20:00,
2013-05-16 11:25:00,63.8,52.6,29.87,North,355,6.0,15.0,67,0.00,,,-99.99,Weather View 32 v60,2013-05-16 18:25:00,
2013-05-16 11:30:00,63.6,52.8,29.87,NE,37,7.0,15.0,68,0.00,,,-99.99,Weather View 32 v60,2013-05-16 18:30:00,
2013-05-16 11:37:00,63.4,52.6,29.87,NE,41,2.0,15.0,68,0.00,,,-99.99,Weather View 32 v60,2013-05-16 18:37:00,
2013-05-16 11:45:00,63.6,52.8,29.87,NNW,336,7.0,15.0,68,0.00,,,-99.99,Weather View 32 v60,2013-05-16 18:45:00,
2013-05-16 11:50:00,63.9,53.1,29.87,WSW,242,4.0,15.0,68,0.00,,,-99.99,Weather View 32 v60,2013-05-16 18:50:00,
2013-05-16 12:00:00,64.7,53.0,29.87,SSW,196,3.0,16.0,66,0.00,,,-99.99,Weather View 32 v60,2013-05-16 19:00:00,
2013-05-16 12:05:00,64.9,52.8,29.88,NNE,20,6.0,16.0,65,0.00,,,-99.99,Weather View 32 v60,2013-05-16 19:05:00,
2013-05-16 12:10:00,64.9,52.8,29.87,NNE,28,5.0,16.0,65,0.00,,,-99.99,Weather View 32 v60,2013-05-16 19:10:00,
2013-05-16 12:20:00,64.8,52.7,29.87,SE,130,8.0,16.0,65,0.00,,,-99.99,Weather View 32 v60,2013-05-16 19:20:00,
2013-05-16 12:30:00,64.7,52.2,29.86,SW,221,4.0,16.0,64,0.00,,,-99.99,Weather View 32 v60,2013-05-16 19:30:00,
2013-05-16 12:35:00,64.7,52.2,29.86,ESE,119,8.0,16.0,64,0.00,,,-99.99,Weather View 32 v60,2013-05-16 19:35:00,
2013-05-16 12:40:00,65.0,52.5,29.86,NE,43,5.0,16.0,64,0.00,,,-99.99,Weather View 32 v60,2013-05-16 19:40:00,
2013-05-16 12:50:00,65.7,52.7,29.86,North,11,4.0,16.0,63,0.00,,,-99.99,Weather View 32 v60,2013-05-16 19:50:00,
2013-05-16 12:55:00,66.1,51.3,29.86,NE,43,1.0,14.0,59,0.00,,,-99.99,Weather View 32 v60,2013-05-16 19:55:00,
2013-05-16 13:00:00,66.3,51.5,29.86,North,359,5.0,15.0,59,0.00,,,-99.99,Weather View 32 v60,2013-05-16 20:00:00,
2013-05-16 13:05:00,66.5,51.2,29.86,NE,42,11.0,15.0,58,0.00,,,-99.99,Weather View 32 v60,2013-05-16 20:05:00,
2013-05-16 13:10:00,66.5,50.3,29.86,NNE,14,7.0,17.0,56,0.00,,,-99.99,Weather View 32 v60,2013-05-16 20:10:00,
2013-05-16 13:15:00,66.4,50.7,29.86,NNE,16,13.0,17.0,57,0.00,,,-99.99,Weather View 32 v60,2013-05-16 20:15:00,
2013-05-16 13:20:00,66.4,50.7,29.86,NE,36,3.0,17.0,57,0.00,,,-99.99,Weather View 32 v60,2013-05-16 20:20:00,
2013-05-16 13:30:00,66.6,50.8,29.85,ENE,58,5.0,17.0,57,0.00,,,-99.99,Weather View 32 v60,2013-05-16 20:30:00,
2013-05-16 13:35:00,66.6,50.8,29.85,NE,37,13.0,17.0,57,0.00,,,-99.99,Weather View 32 v60,2013-05-16 20:35:00,
2013-05-16 13:40:00,66.2,50.9,29.86,NNE,32,7.0,17.0,58,0.00,,,-99.99,Weather View 32 v60,2013-05-16 20:40:00,
2013-05-16 13:50:00,65.8,51.0,29.85,North,2,5.0,17.0,59,0.00,,,-99.99,Weather View 32 v60,2013-05-16 20:50:00,
2013-05-16 14:00:00,66.3,50.6,29.85,NNW,337,11.0,17.0,57,0.00,,,-99.99,Weather View 32 v60,2013-05-16 21:00:00,
2013-05-16 14:10:00,66.6,49.9,29.84,North,354,1.0,16.0,55,0.00,,,-99.99,Weather View 32 v60,2013-05-16 21:10:00,
2013-05-16 14:15:00,67.0,49.8,29.85,South,185,4.0,16.0,54,0.00,,,-99.99,Weather View 32 v60,2013-05-16 21:15:00,
2013-05-16 14:20:00,67.1,49.3,29.85,ENE,61,6.0,16.0,53,0.00,,,-99.99,Weather View 32 v60,2013-05-16 21:20:00,
2013-05-16 14:25:00,67.0,49.8,29.85,SSW,209,6.0,16.0,54,0.00,,,-99.99,Weather View 32 v60,2013-05-16 21:25:00,
2013-05-16 14:30:00,67.1,49.3,29.85,NW,325,8.0,16.0,53,0.00,,,-99.99,Weather View 32 v60,2013-05-16 21:30:00,
2013-05-16 14:38:00,67.2,49.9,29.85,South,189,4.0,16.0,54,0.00,,,-99.99,Weather View 32 v60,2013-05-16 21:38:00,
2013-05-16 14:45:00,67.7,49.4,29.85,West,281,3.0,16.0,52,0.00,,,-99.99,Weather View 32 v60,2013-05-16 21:45:00,
2013-05-16 14:50:00,67.5,49.2,29.85,SSE,148,8.0,16.0,52,0.00,,,-99.99,Weather View 32 v60,2013-05-16 21:50:00,
2013-05-16 15:00:00,66.8,49.1,29.85,NW,307,3.0,18.0,53,0.00,,,-99.99,Weather View 32 v60,2013-05-16 22:00:00,
2013-05-16 15:05:00,66.6,49.9,29.84,NE,45,10.0,18.0,55,0.00,,,-99.99,Weather View 32 v60,2013-05-16 22:05:00,
2013-05-16 15:10:00,66.3,49.1,29.84,North,356,3.0,18.0,54,0.00,,,-99.99,Weather View 32 v60,2013-05-16 22:10:00,
2013-05-16 15:15:00,66.2,49.5,29.84,NNE,31,6.0,18.0,55,0.00,,,-99.99,Weather View 32 v60,2013-05-16 22:15:00,
2013-05-16 15:20:00,66.2,49.0,29.84,ENE,75,3.0,18.0,54,0.00,,,-99.99,Weather View 32 v60,2013-05-16 22:20:00,
2013-05-16 15:30:00,67.1,49.3,29.84,South,171,4.0,18.0,53,0.00,,,-99.99,Weather View 32 v60,2013-05-16 22:30:00,
2013-05-16 15:39:00,67.5,49.7,29.84,NNW,339,3.0,18.0,53,0.00,,,-99.99,Weather View 32 v60,2013-05-16 22:39:00,
2013-05-16 15:45:00,67.5,49.7,29.83,SE,136,2.0,18.0,53,0.00,,,-99.99,Weather View 32 v60,2013-05-16 22:45:00,
2013-05-16 15:50:00,67.4,49.6,29.83,SE,132,6.0,18.0,53,0.00,,,-99.99,Weather View 32 v60,2013-05-16 22:50:00,
2013-05-16 15:55:00,67.9,50.1,29.82,North,6,5.0,20.0,53,0.00,,,-99.99,Weather View 32 v60,2013-05-16 22:55:00,
2013-05-16 16:00:00,67.7,49.9,29.82,SW,215,3.0,20.0,53,0.00,,,-99.99,Weather View 32 v60,2013-05-16 23:00:00,
2013-05-16 16:10:00,68.3,49.9,29.82,North,0,3.0,20.0,52,0.00,,,-99.99,Weather View 32 v60,2013-05-16 23:10:00,
2013-05-16 16:20:00,68.4,49.5,29.82,SE,130,5.0,20.0,51,0.00,,,-99.99,Weather View 32 v60,2013-05-16 23:20:00,
2013-05-16 16:25:00,68.3,48.3,29.82,ENE,65,4.0,20.0,49,0.00,,,-99.99,Weather View 32 v60,2013-05-16 23:25:00,
2013-05-16 16:30:00,68.3,48.3,29.81,East,79,6.0,20.0,49,0.00,,,-99.99,Weather View 32 v60,2013-05-16 23:30:00,
2013-05-16 16:35:00,68.3,48.9,29.82,SE,132,9.0,20.0,50,0.00,,,-99.99,Weather View 32 v60,2013-05-16 23:35:00,
2013-05-16 16:40:00,68.3,48.9,29.82,SSE,152,9.0,20.0,50,0.00,,,-99.99,Weather View 32 v60,2013-05-16 23:40:00,
2013-05-16 16:50:00,67.1,48.3,29.82,NNE,31,3.0,20.0,51,0.00,,,-99.99,Weather View 32 v60,2013-05-16 23:50:00,
2013-05-16 16:55:00,66.8,48.6,29.81,SW,228,8.0,18.0,52,0.00,,,-99.99,Weather View 32 v60,2013-05-16 23:55:00,
2013-05-16 17:00:00,66.8,48.6,29.81,East,80,2.0,18.0,52,0.00,,,-99.99,Weather View 32 v60,2013-05-17 00:00:00,
2013-05-16 17:10:00,66.9,48.1,29.81,NE,34,7.0,18.0,51,0.00,,,-99.99,Weather View 32 v60,2013-05-17 00:10:00,
2013-05-16 17:15:00,66.2,48.5,29.82,ENE,59,12.0,18.0,53,0.00,,,-99.99,Weather View 32 v60,2013-05-17 00:15:00,
2013-05-16 17:20:00,65.7,48.6,29.81,ESE,103,6.0,18.0,54,0.00,,,-99.99,Weather View 32 v60,2013-05-17 00:20:00,
2013-05-16 17:25:00,65.3,48.7,29.81,NNE,31,11.0,18.0,55,0.00,,,-99.99,Weather View 32 v60,2013-05-17 00:25:00,
2013-05-16 17:30:00,64.6,48.5,29.82,ENE,72,6.0,18.0,56,0.00,,,-99.99,Weather View 32 v60,2013-05-17 00:30:00,
2013-05-16 17:35:00,63.8,48.7,29.82,North,0,2.0,18.0,58,0.00,,,-99.99,Weather View 32 v60,2013-05-17 00:35:00,
2013-05-16 17:40:00,63.2,48.6,29.82,NNE,30,8.0,18.0,59,0.00,,,-99.99,Weather View 32 v60,2013-05-17 00:40:00,
2013-05-16 17:50:00,62.2,49.0,29.82,SE,129,11.0,18.0,62,0.00,,,-99.99,Weather View 32 v60,2013-05-17 00:50:00,
2013-05-16 18:00:00,61.8,49.5,29.81,ESE,123,5.0,19.0,64,0.00,,,-99.99,Weather View 32 v60,2013-05-17 01:00:00,
2013-05-16 18:05:00,61.7,49.4,29.81,East,79,6.0,19.0,64,0.00,,,-99.99,Weather View 32 v60,2013-05-17 01:05:00,
2013-05-16 18:10:00,61.4,49.5,29.81,ENE,64,10.0,19.0,65,0.00,,,-99.99,Weather View 32 v60,2013-05-17 01:10:00,
2013-05-16 18:15:00,61.2,49.3,29.80,SSE,160,3.0,19.0,65,0.00,,,-99.99,Weather View 32 v60,2013-05-17 01:15:00,
2013-05-16 18:20:00,60.9,48.6,29.80,NE,51,13.0,19.0,64,0.00,,,-99.99,Weather View 32 v60,2013-05-17 01:20:00,
2013-05-16 18:25:00,60.1,48.3,29.81,SW,217,7.0,20.0,65,0.00,,,-99.99,Weather View 32 v60,2013-05-17 01:25:00,
2013-05-16 18:30:00,59.6,48.2,29.80,ESE,121,4.0,20.0,66,0.00,,,-99.99,Weather View 32 v60,2013-05-17 01:30:00,
2013-05-16 18:40:00,59.2,48.2,29.80,North,6,8.0,20.0,67,0.00,,,-99.99,Weather View 32 v60,2013-05-17 01:40:00,
2013-05-16 18:45:00,58.7,47.7,29.81,ENE,76,10.0,24.0,67,0.00,,,-99.99,Weather View 32 v60,2013-05-17 01:45:00,
2013-05-16 18:50:00,59.0,48.4,29.80,NE,38,8.0,24.0,68,0.00,,,-99.99,Weather View 32 v60,2013-05-17 01:50:00,
2013-05-16 19:00:00,59.3,48.3,29.80,SE,138,5.0,24.0,67,0.00,,,-99.99,Weather View 32 v60,2013-05-17 02:00:00,
2013-05-16 19:05:00,59.3,47.9,29.80,SE,124,3.0,24.0,66,0.00,,,-99.99,Weather View 32 v60,2013-05-17 02:05:00,
2013-05-16 19:10:00,59.0,48.0,29.80,NNE,29,2.0,24.0,67,0.00,,,-99.99,Weather View 32 v60,2013-05-17 02:10:00,
2013-05-16 19:20:00,58.8,47.8,29.81,South,178,8.0,24.0,67,0.00,,,-99.99,Weather View 32 v60,2013-05-17 02:20:00,
2013-05-16 19:30:00,58.5,47.2,29.81,ENE,67,7.0,24.0,66,0.00,,,-99.99,Weather View 32 v60,2013-05-17 02:30:00,
2013-05-16 19:35:00,58.4,47.1,29.81,NNE,19,2.0,24.0,66,0.00,,,-99.99,Weather View 32 v60,2013-05-17 02:35:00,
2013-05-16 19:40:00,58.2,47.7,29.82,ENE,76,1.0,24.0,68,0.00,,,-99.99,Weather View 32 v60,2013-05-17 02:40:00,
2013-05-16 19:50:00,58.0,47.9,29.82,East,85,4.0,17.0,69,0.00,,,-99.99,Weather View 32 v60,2013-05-17 02:50:00,
2013-05-16 20:00:00,57.6,47.9,29.82,NNE,31,7.0,17.0,70,0.00,,,-99.99,Weather View 32 v60,2013-05-17 03:00:00,
2013-05-16 20:10:00,57.3,47.6,29.81,North,6,3.0,17.0,70,0.00,,,-99.99,Weather View 32 v60,2013-05-17 03:10:00,
2013-05-16 20:15:00,57.1,47.8,29.81,East,83,3.0,17.0,71,0.00,,,-99.99,Weather View 32 v60,2013-05-17 03:15:00,
2013-05-16 20:20:00,56.9,47.6,29.82,NNE,33,2.0,17.0,71,0.00,,,-99.99,Weather View 32 v60,2013-05-17 03:20:00,
2013-05-16 20:30:00,56.6,46.1,29.83,ENE,65,4.0,15.0,68,0.00,,,-99.99,Weather View 32 v60,2013-05-17 03:30:00,
2013-05-16 20:40:00,56.3,45.9,29.83,East,99,2.0,15.0,68,0.00,,,-99.99,Weather View 32 v60,2013-05-17 03:40:00,
2013-05-16 20:45:00,56.1,45.7,29.83,NE,35,5.0,15.0,68,0.00,,,-99.99,Weather View 32 v60,2013-05-17 03:45:00,
2013-05-16 20:50:00,56.0,45.6,29.83,ESE,119,4.0,15.0,68,0.00,,,-99.99,Weather View 32 v60,2013-05-17 03:50:00,
2013-05-16 20:55:00,55.9,45.5,29.83,South,176,5.0,15.0,68,0.00,,,-99.99,Weather View 32 v60,2013-05-17 03:55:00,
2013-05-16 21:00:00,55.8,45.8,29.83,East,80,0.0,13.0,69,0.00,,,-99.99,Weather View 32 v60,2013-05-17 04:00:00,
2013-05-16 21:05:00,55.8,45.8,29.83,SSE,151,0.0,13.0,69,0.00,,,-99.99,Weather View 32 v60,2013-05-17 04:05:00,
2013-05-16 21:10:00,55.7,46.0,29.83,ENE,72,5.0,14.0,70,0.00,,,-99.99,Weather View 32 v60,2013-05-17 04:10:00,
2013-05-16 21:15:00,55.7,46.0,29.82,NE,47,1.0,15.0,70,0.00,,,-99.99,Weather View 32 v60,2013-05-17 04:15:00,
2013-05-16 21:20:00,55.7,46.0,29.83,NNE,30,1.0,15.0,70,0.00,,,-99.99,Weather View 32 v60,2013-05-17 04:20:00,
2013-05-16 21:25:00,55.7,46.0,29.83,NE,50,1.0,15.0,70,0.00,,,-99.99,Weather View 32 v60,2013-05-17 04:25:00,
2013-05-16 21:30:00,55.6,45.9,29.83,North,5,4.0,15.0,70,0.00,,,-99.99,Weather View 32 v60,2013-05-17 04:30:00,
2013-05-16 21:40:00,55.5,45.5,29.83,ESE,112,4.0,15.0,69,0.00,,,-99.99,Weather View 32 v60,2013-05-17 04:40:00,
2013-05-16 21:45:00,55.5,45.5,29.83,NNW,334,4.0,15.0,69,0.00,,,-99.99,Weather View 32 v60,2013-05-17 04:45:00,
2013-05-16 21:50:00,55.5,45.5,29.83,ESE,119,2.0,17.0,69,0.00,,,-99.99,Weather View 32 v60,2013-05-17 04:50:00,
2013-05-16 22:00:00,55.4,45.8,29.83,SE,137,5.0,17.0,70,0.00,,,-99.99,Weather View 32 v60,2013-05-17 05:00:00,
2013-05-16 22:10:00,55.1,46.2,29.84,ESE,120,4.0,17.0,72,0.00,,,-99.99,Weather View 32 v60,2013-05-17 05:10:00,
2013-05-16 22:20:00,54.8,45.9,29.85,SE,128,4.0,18.0,72,0.00,,,-99.99,Weather View 32 v60,2013-05-17 05:20:00,
2013-05-16 22:30:00,54.6,46.1,29.85,ESE,111,1.0,18.0,73,0.00,,,-99.99,Weather View 32 v60,2013-05-17 05:30:00,
2013-05-16 22:35:00,54.5,46.4,29.85,ESE,122,4.0,18.0,74,0.00,,,-99.99,Weather View 32 v60,2013-05-17 05:35:00,
2013-05-16 22:40:00,54.4,46.3,29.85,East,79,2.0,18.0,74,0.00,,,-99.99,Weather View 32 v60,2013-05-17 05:40:00,
2013-05-16 22:45:00,54.4,46.3,29.84,North,1,4.0,18.0,74,0.00,,,-99.99,Weather View 32 v60,2013-05-17 05:45:00,
2013-05-16 22:50:00,54.4,45.9,29.84,SSE,147,3.0,18.0,73,0.00,,,-99.99,Weather View 32 v60,2013-05-17 05:50:00,
2013-05-16 22:55:00,54.4,45.9,29.84,North,0,3.0,18.0,73,0.00,,,-99.99,Weather View 32 v60,2013-05-17 05:55:00,
2013-05-16 23:00:00,54.4,45.5,29.84,NNW,328,6.0,18.0,72,0.00,,,-99.99,Weather View 32 v60,2013-05-17 06:00:00,
2013-05-16 23:10:00,54.4,45.2,29.84,NNE,26,13.0,18.0,71,0.00,,,-99.99,Weather View 32 v60,2013-05-17 06:10:00,
2013-05-16 23:20:00,54.5,45.3,29.85,ENE,63,13.0,18.0,71,0.00,,,-99.99,Weather View 32 v60,2013-05-17 06:20:00,
2013-05-16 23:25:00,54.6,45.4,29.84,NNE,13,8.0,18.0,71,0.00,,,-99.99,Weather View 32 v60,2013-05-17 06:25:00,
2013-05-16 23:30:00,54.5,44.9,29.84,NE,45,5.0,18.0,70,0.00,,,-99.99,Weather View 32 v60,2013-05-17 06:30:00,
2013-05-16 23:35:00,54.6,44.6,29.84,NNE,28,6.0,18.0,69,0.00,,,-99.99,Weather View 32 v60,2013-05-17 06:35:00,
2013-05-16 23:40:00,54.7,44.7,29.84,ENE,71,9.0,18.0,69,0.00,,,-99.99,Weather View 32 v60,2013-05-17 06:40:00,
2013-05-16 23:50:00,54.7,44.3,29.84,NE,39,5.0,18.0,68,0.00,,,-99.99,Weather View 32 v60,2013-05-17 06:50:00,
2013-05-16 23:55:00,54.7,44.3,29.84,SE,130,4.0,18.0,68,0.00,,,-99.99,Weather View 32 v60,2013-05-17 06:55:00,